Time,TemperatureF,DewpointF,PressureIn,WindDirection,WindDirectionDegrees,WindSpeedMPH,WindSpeedGustMPH,Humidity,HourlyPrecipIn,Conditions,Clouds,dailyrainin,SoftwareType,DateUTC
2013-06-20 00:03:00,70.3,15.3,27.19,North,0,0.0,0.0,12,0.00,CLR,OVC,0.00,WeatherDisplay:10.37,2013-06-20 05:03:00,
2013-06-20 00:08:00,70.5,15.4,27.19,North,0,0.0,0.0,12,0.00,CLR,OVC,0.00,WeatherDisplay:10.37,2013-06-20 05:08:00,
2013-06-20 00:13:00,70.5,15.4,27.19,North,0,0.0,0.0,12,0.00,CLR,OVC,0.00,WeatherDisplay:10.37,2013-06-20 05:13:00,
2013-06-20 00:18:00,70.5,15.4,27.19,North,0,0.0,0.0,12,0.00,CLR,OVC,0.00,WeatherDisplay:10.37,2013-06-20 05:18:00,
2013-06-20 00:23:00,70.5,15.4,27.19,North,0,0.0,0.0,12,0.00,CLR,OVC,0.00,WeatherDisplay:10.37,2013-06-20 05:23:00,
2013-06-20 00:28:00,70.3,15.3,27.19,North,0,0.0,0.0,12,0.00,CLR,OVC,0.00,WeatherDisplay:10.37,2013-06-20 05:28:00,
2013-06-20 00:33:00,70.3,15.3,27.19,North,0,0.0,0.0,12,0.00,CLR,OVC,0.00,WeatherDisplay:10.37,2013-06-20 05:33:00,
2013-06-20 00:38:00,70.3,15.3,27.19,North,0,0.0,0.0,12,0.00,CLR,OVC,0.00,WeatherDisplay:10.37,2013-06-20 05:38:00,
2013-06-20 00:43:00,70.3,15.3,27.19,North,0,0.0,0.0,12,0.00,CLR,OVC,0.00,WeatherDisplay:10.37,2013-06-20 05:43:00,
2013-06-20 00:48:00,70.2,15.1,27.19,North,0,0.0,0.0,12,0.00,CLR,OVC,0.00,WeatherDisplay:10.37,2013-06-20 05:48:00,
2013-06-20 00:53:00,70.2,15.1,27.19,North,0,0.0,0.0,12,0.00,CLR,OVC,0.00,WeatherDisplay:10.37,2013-06-20 05:53:00,
2013-06-20 00:58:00,70.0,15.0,27.19,North,0,0.0,0.0,12,0.00,CLR,OVC,0.00,WeatherDisplay:10.37,2013-06-20 05:58:00,
2013-06-20 01:03:00,69.8,14.8,27.19,North,0,0.0,0.0,12,0.00,CLR,OVC,0.00,WeatherDisplay:10.37,2013-06-20 06:03:00,
2013-06-20 01:08:00,69.6,14.7,27.19,North,0,0.0,0.0,12,0.00,CLR,OVC,0.00,WeatherDisplay:10.37,2013-06-20 06:08:00,
2013-06-20 01:13:00,69.4,14.6,27.19,North,0,0.0,0.0,12,0.00,CLR,OVC,0.00,WeatherDisplay:10.37,2013-06-20 06:13:00,
2013-06-20 01:18:00,69.3,19.6,27.19,North,0,0.0,0.0,15,0.00,CLR,OVC,0.00,WeatherDisplay:10.37,2013-06-20 06:18:00,
2013-06-20 01:23:00,69.1,19.4,27.19,North,0,0.0,0.0,15,0.00,CLR,OVC,0.00,WeatherDisplay:10.37,2013-06-20 06:23:00,
2013-06-20 01:28:00,68.9,19.3,27.19,North,0,0.0,0.0,15,0.00,CLR,OVC,0.00,WeatherDisplay:10.37,2013-06-20 06:28:00,
2013-06-20 01:33:00,68.7,19.1,27.19,North,0,0.0,0.0,15,0.00,CLR,OVC,0.00,WeatherDisplay:10.37,2013-06-20 06:33:00,
2013-06-20 01:38:00,68.5,19.0,27.19,North,0,0.0,0.0,15,0.00,CLR,OVC,0.00,WeatherDisplay:10.37,2013-06-20 06:38:00,
2013-06-20 01:43:00,68.4,18.9,27.19,North,0,0.0,0.0,15,0.00,CLR,OVC,0.00,WeatherDisplay:10.37,2013-06-20 06:43:00,
2013-06-20 01:48:00,68.2,18.7,27.19,North,0,0.0,0.0,15,0.00,CLR,OVC,0.00,WeatherDisplay:10.37,2013-06-20 06:48:00,
2013-06-20 01:53:00,68.0,18.6,27.19,North,0,0.0,0.0,15,0.00,CLR,OVC,0.00,WeatherDisplay:10.37,2013-06-20 06:53:00,
2013-06-20 01:58:00,68.0,18.6,27.19,North,0,0.0,0.0,15,0.00,CLR,OVC,0.00,WeatherDisplay:10.37,2013-06-20 06:58:00,
2013-06-20 02:03:00,67.8,21.4,27.19,North,0,0.0,0.0,17,0.00,CLR,OVC,0.00,WeatherDisplay:10.37,2013-06-20 07:03:00,
2013-06-20 02:08:00,67.8,21.4,27.19,North,0,0.0,0.0,17,0.00,CLR,OVC,0.00,WeatherDisplay:10.37,2013-06-20 07:08:00,
2013-06-20 02:13:00,67.6,21.2,27.19,North,0,0.0,0.0,17,0.00,CLR,OVC,0.00,WeatherDisplay:10.37,2013-06-20 07:13:00,
2013-06-20 02:18:00,67.5,21.1,27.19,North,0,0.0,0.0,17,0.00,CLR,OVC,0.00,WeatherDisplay:10.37,2013-06-20 07:18:00,
2013-06-20 02:23:00,67.5,21.1,27.19,North,0,0.0,0.0,17,0.00,CLR,OVC,0.00,WeatherDisplay:10.37,2013-06-20 07:23:00,
2013-06-20 02:28:00,67.3,20.9,27.19,North,0,0.0,0.0,17,0.00,CLR,OVC,0.00,WeatherDisplay:10.37,2013-06-20 07:28:00,
2013-06-20 02:33:00,67.3,20.9,27.19,North,0,0.0,0.0,17,0.00,CLR,OVC,0.00,WeatherDisplay:10.37,2013-06-20 07:33:00,
2013-06-20 02:38:00,67.3,20.9,27.19,North,0,0.0,0.0,17,0.00,CLR,OVC,0.00,WeatherDisplay:10.37,2013-06-20 07:38:00,
2013-06-20 02:43:00,67.3,20.9,27.19,North,0,0.0,0.0,17,0.00,CLR,OVC,0.00,WeatherDisplay:10.37,2013-06-20 07:43:00,
2013-06-20 02:48:00,67.1,20.8,27.19,North,0,0.0,0.0,17,0.00,CLR,OVC,0.00,WeatherDisplay:10.37,2013-06-20 07:48:00,
2013-06-20 02:53:00,66.9,20.6,27.19,North,0,0.0,0.0,17,0.00,CLR,OVC,0.00,WeatherDisplay:10.37,2013-06-20 07:53:00,
2013-06-20 02:58:00,66.9,20.6,27.19,North,0,0.0,0.0,17,0.00,CLR,OVC,0.00,WeatherDisplay:10.37,2013-06-20 07:58:00,
2013-06-20 03:03:00,66.7,20.5,27.19,North,0,0.0,0.0,17,0.00,CLR,OVC,0.00,WeatherDisplay:10.37,2013-06-20 08:03:00,
2013-06-20 03:08:00,66.6,20.3,27.19,North,0,0.0,0.0,17,0.00,CLR,OVC,0.00,WeatherDisplay:10.37,2013-06-20 08:08:00,
2013-06-20 03:13:00,66.4,20.2,27.19,North,0,0.0,0.0,17,0.00,CLR,OVC,0.00,WeatherDisplay:10.37,2013-06-20 08:13:00,
2013-06-20 03:18:00,66.4,24.1,27.19,North,0,0.0,0.0,20,0.00,CLR,OVC,0.00,WeatherDisplay:10.37,2013-06-20 08:18:00,
2013-06-20 03:23:00,66.2,23.9,27.19,North,0,0.0,0.0,20,0.00,CLR,OVC,0.00,WeatherDisplay:10.37,2013-06-20 08:23:00,
2013-06-20 03:28:00,66.0,23.8,27.19,North,0,0.0,0.0,20,0.00,CLR,OVC,0.00,WeatherDisplay:10.37,2013-06-20 08:28:00,
2013-06-20 03:33:00,65.7,23.5,27.19,North,0,0.0,0.0,20,0.00,CLR,OVC,0.00,WeatherDisplay:10.37,2013-06-20 08:33:00,
2013-06-20 03:38:00,65.5,26.7,27.19,North,0,0.0,0.0,23,0.00,CLR,OVC,0.00,WeatherDisplay:10.37,2013-06-20 08:38:00,
2013-06-20 03:43:00,65.3,26.5,27.19,North,0,0.0,0.0,23,0.00,CLR,OVC,0.00,WeatherDisplay:10.37,2013-06-20 08:43:00,
2013-06-20 03:48:00,64.9,26.2,27.19,North,0,0.0,0.0,23,0.00,CLR,OVC,0.00,WeatherDisplay:10.37,2013-06-20 08:48:00,
2013-06-20 03:53:00,64.8,26.1,27.19,North,0,0.0,0.0,23,0.00,CLR,OVC,0.00,WeatherDisplay:10.37,2013-06-20 08:53:00,
2013-06-20 03:58:00,64.6,25.9,27.19,North,0,0.0,0.0,23,0.00,CLR,OVC,0.00,WeatherDisplay:10.37,2013-06-20 08:58:00,
2013-06-20 04:03:00,64.2,26.6,27.19,North,0,0.0,0.0,24,0.00,CLR,OVC,0.00,WeatherDisplay:10.37,2013-06-20 09:03:00,
2013-06-20 04:08:00,64.0,26.5,27.19,North,0,0.0,0.0,24,0.00,CLR,OVC,0.00,WeatherDisplay:10.37,2013-06-20 09:08:00,
2013-06-20 04:13:00,63.9,26.3,27.19,North,0,0.0,0.0,24,0.00,CLR,OVC,0.00,WeatherDisplay:10.37,2013-06-20 09:13:00,
2013-06-20 04:18:00,63.7,27.2,27.19,North,0,0.0,0.0,25,0.00,CLR,OVC,0.00,WeatherDisplay:10.37,2013-06-20 09:18:00,
2013-06-20 04:23:00,63.5,27.0,27.19,North,0,0.0,0.0,25,0.00,CLR,OVC,0.00,WeatherDisplay:10.37,2013-06-20 09:23:00,
2013-06-20 04:28:00,63.1,26.7,27.19,North,0,0.0,0.0,25,0.00,CLR,OVC,0.00,WeatherDisplay:10.37,2013-06-20 09:28:00,
2013-06-20 04:33:00,63.1,26.7,27.19,North,0,0.0,0.0,25,0.00,CLR,OVC,0.00,WeatherDisplay:10.37,2013-06-20 09:33:00,
2013-06-20 04:38:00,63.0,27.5,27.19,North,0,0.0,0.0,26,0.00,CLR,OVC,0.00,WeatherDisplay:10.37,2013-06-20 09:38:00,
2013-06-20 04:43:00,62.8,27.4,27.19,North,0,0.0,0.0,26,0.00,CLR,OVC,0.00,WeatherDisplay:10.37,2013-06-20 09:43:00,
2013-06-20 04:48:00,62.6,27.2,27.19,North,0,0.0,0.0,26,0.00,CLR,OVC,0.00,WeatherDisplay:10.37,2013-06-20 09:48:00,
2013-06-20 04:53:00,62.6,28.1,27.19,North,0,0.0,0.0,27,0.00,CLR,OVC,0.00,WeatherDisplay:10.37,2013-06-20 09:53:00,
2013-06-20 04:58:00,62.4,28.9,27.19,North,0,0.0,0.0,28,0.00,CLR,OVC,0.00,WeatherDisplay:10.37,2013-06-20 09:58:00,
2013-06-20 05:03:00,62.2,28.7,27.19,North,0,0.0,0.0,28,0.00,CLR,OVC,0.00,WeatherDisplay:10.37,2013-06-20 10:03:00,
2013-06-20 05:08:00,62.2,29.6,27.19,North,0,0.0,0.0,29,0.00,CLR,OVC,0.00,WeatherDisplay:10.37,2013-06-20 10:08:00,
2013-06-20 05:13:00,62.1,29.4,27.19,North,0,0.0,0.0,29,0.00,CLR,OVC,0.00,WeatherDisplay:10.37,2013-06-20 10:13:00,
2013-06-20 05:18:00,61.9,29.2,27.19,North,0,0.0,0.0,29,0.00,CLR,OVC,0.00,WeatherDisplay:10.37,2013-06-20 10:18:00,
2013-06-20 05:23:00,61.9,30.1,27.19,North,0,0.0,0.0,30,0.00,CLR,OVC,0.00,WeatherDisplay:10.37,2013-06-20 10:23:00,
2013-06-20 05:28:00,61.9,30.1,27.19,North,0,0.0,0.0,30,0.00,CLR,OVC,0.00,WeatherDisplay:10.37,2013-06-20 10:28:00,
2013-06-20 05:33:00,61.9,30.1,27.19,North,0,0.0,0.0,30,0.00,CLR,OVC,0.00,WeatherDisplay:10.37,2013-06-20 10:33:00,
2013-06-20 05:38:00,61.9,30.9,27.19,North,0,0.0,0.0,31,0.00,CLR,OVC,0.00,WeatherDisplay:10.37,2013-06-20 10:38:00,
2013-06-20 05:43:00,61.9,30.9,27.19,North,0,0.0,0.0,31,0.00,CLR,OVC,0.00,WeatherDisplay:10.37,2013-06-20 10:43:00,
2013-06-20 05:48:00,61.9,31.7,27.19,North,0,0.0,0.0,32,0.00,CLR,OVC,0.00,WeatherDisplay:10.37,2013-06-20 10:48:00,
2013-06-20 05:53:00,61.9,31.7,27.19,North,0,0.0,0.0,32,0.00,CLR,OVC,0.00,WeatherDisplay:10.37,2013-06-20 10:53:00,
2013-06-20 05:58:00,62.1,31.8,27.19,North,0,0.0,0.0,32,0.00,CLR,OVC,0.00,WeatherDisplay:10.37,2013-06-20 10:58:00,
2013-06-20 06:03:00,62.2,32.0,27.19,North,0,0.0,0.0,32,0.00,CLR,OVC,0.00,WeatherDisplay:10.37,2013-06-20 11:03:00,
2013-06-20 06:08:00,62.4,32.1,27.19,North,0,0.0,0.0,32,0.00,CLR,OVC,0.00,WeatherDisplay:10.37,2013-06-20 11:08:00,
2013-06-20 06:13:00,62.6,31.5,27.19,North,0,0.0,0.0,31,0.00,CLR,OVC,0.00,WeatherDisplay:10.37,2013-06-20 11:13:00,
2013-06-20 06:18:00,62.8,31.7,27.19,North,0,0.0,0.0,31,0.00,CLR,OVC,0.00,WeatherDisplay:10.37,2013-06-20 11:18:00,
2013-06-20 06:23:00,63.0,31.8,27.19,North,0,0.0,0.0,31,0.00,CLR,OVC,0.00,WeatherDisplay:10.37,2013-06-20 11:23:00,
2013-06-20 06:28:00,63.1,32.0,27.19,North,0,0.0,0.0,31,0.00,CLR,OVC,0.00,WeatherDisplay:10.37,2013-06-20 11:28:00,
2013-06-20 06:33:00,63.3,32.1,27.19,North,0,0.0,0.0,31,0.00,CLR,OVC,0.00,WeatherDisplay:10.37,2013-06-20 11:33:00,
2013-06-20 06:38:00,63.5,32.3,27.19,North,0,0.0,0.0,31,0.00,CLR,OVC,0.00,WeatherDisplay:10.37,2013-06-20 11:38:00,
2013-06-20 06:43:00,63.7,32.5,27.19,North,0,0.0,0.0,31,0.00,CLR,OVC,0.00,WeatherDisplay:10.37,2013-06-20 11:43:00,
2013-06-20 06:48:00,64.0,32.8,27.19,North,0,0.0,0.0,31,0.00,CLR,OVC,0.00,WeatherDisplay:10.37,2013-06-20 11:48:00,
2013-06-20 06:53:00,64.4,32.3,27.19,North,0,0.0,0.0,30,0.00,CLR,OVC,0.00,WeatherDisplay:10.37,2013-06-20 11:53:00,
2013-06-20 06:58:00,64.8,31.7,27.19,North,0,0.0,0.0,29,0.00,CLR,OVC,0.00,WeatherDisplay:10.37,2013-06-20 11:58:00,
2013-06-20 07:03:00,65.1,32.0,27.19,North,0,0.0,0.0,29,0.00,CLR,OVC,0.00,WeatherDisplay:10.37,2013-06-20 12:03:00,
2013-06-20 07:08:00,65.5,31.5,27.19,North,0,0.0,0.0,28,0.00,CLR,OVC,0.00,WeatherDisplay:10.37,2013-06-20 12:08:00,
2013-06-20 07:13:00,65.8,30.9,27.19,North,0,0.0,0.0,27,0.00,CLR,OVC,0.00,WeatherDisplay:10.37,2013-06-20 12:13:00,
2013-06-20 07:18:00,66.2,31.2,27.19,North,0,0.0,0.0,27,0.00,CLR,OVC,0.00,WeatherDisplay:10.37,2013-06-20 12:18:00,
2013-06-20 07:23:00,66.6,30.6,27.19,North,0,0.0,0.0,26,0.00,CLR,OVC,0.00,WeatherDisplay:10.37,2013-06-20 12:23:00,
2013-06-20 07:28:00,66.9,29.9,27.19,North,0,0.0,0.0,25,0.00,CLR,OVC,0.00,WeatherDisplay:10.37,2013-06-20 12:28:00,
2013-06-20 07:33:00,67.3,30.2,27.19,North,0,0.0,0.0,25,0.00,CLR,OVC,0.00,WeatherDisplay:10.37,2013-06-20 12:33:00,
2013-06-20 07:38:00,67.6,30.5,27.19,North,0,0.0,0.0,25,0.00,CLR,OVC,0.00,WeatherDisplay:10.37,2013-06-20 12:38:00,
2013-06-20 07:43:00,68.0,29.8,27.19,North,0,0.0,0.0,24,0.00,CLR,OVC,0.00,WeatherDisplay:10.37,2013-06-20 12:43:00,
2013-06-20 07:48:00,68.4,30.1,27.19,North,0,0.0,0.0,24,0.00,CLR,OVC,0.00,WeatherDisplay:10.37,2013-06-20 12:48:00,
2013-06-20 07:53:00,68.9,29.5,27.19,North,0,0.0,0.0,23,0.00,CLR,OVC,0.00,WeatherDisplay:10.37,2013-06-20 12:53:00,
2013-06-20 07:58:00,69.4,30.0,27.19,North,0,0.0,0.0,23,0.00,CLR,OVC,0.00,WeatherDisplay:10.37,2013-06-20 12:58:00,
2013-06-20 08:03:00,69.8,30.3,27.19,North,0,0.0,0.0,23,0.00,CLR,OVC,0.00,WeatherDisplay:10.37,2013-06-20 13:03:00,
2013-06-20 08:08:00,70.3,30.8,27.19,North,0,0.0,0.0,23,0.00,CLR,OVC,0.00,WeatherDisplay:10.37,2013-06-20 13:08:00,
2013-06-20 08:13:00,70.7,30.0,27.19,North,0,0.0,0.0,22,0.00,CLR,OVC,0.00,WeatherDisplay:10.37,2013-06-20 13:13:00,
2013-06-20 08:18:00,71.1,30.3,27.19,North,0,0.0,0.0,22,0.00,CLR,OVC,0.00,WeatherDisplay:10.37,2013-06-20 13:18:00,
2013-06-20 08:23:00,71.6,30.7,27.19,North,0,0.0,0.0,22,0.00,CLR,OVC,0.00,WeatherDisplay:10.37,2013-06-20 13:23:00,
2013-06-20 08:28:00,72.1,31.2,27.19,North,0,0.0,0.0,22,0.00,CLR,OVC,0.00,WeatherDisplay:10.37,2013-06-20 13:28:00,
2013-06-20 08:33:00,72.7,30.5,27.19,North,0,0.0,0.0,21,0.00,CLR,OVC,0.00,WeatherDisplay:10.37,2013-06-20 13:33:00,
2013-06-20 08:38:00,73.0,28.3,27.19,North,0,0.0,0.0,19,0.00,CLR,OVC,0.00,WeatherDisplay:10.37,2013-06-20 13:38:00,
2013-06-20 08:43:00,73.6,27.4,27.19,North,0,0.0,0.0,18,0.00,CLR,OVC,0.00,WeatherDisplay:10.37,2013-06-20 13:43:00,
2013-06-20 08:48:00,74.1,27.9,27.19,North,0,0.0,0.0,18,0.00,CLR,OVC,0.00,WeatherDisplay:10.37,2013-06-20 13:48:00,
2013-06-20 08:53:00,74.5,25.3,27.19,North,0,0.0,0.0,16,0.00,CLR,OVC,0.00,WeatherDisplay:10.37,2013-06-20 13:53:00,
2013-06-20 08:58:00,75.0,25.7,27.19,North,0,0.0,0.0,16,0.00,CLR,OVC,0.00,WeatherDisplay:10.37,2013-06-20 13:58:00,
2013-06-20 09:03:00,75.4,21.1,27.19,North,0,0.0,0.0,13,0.00,CLR,OVC,0.00,WeatherDisplay:10.37,2013-06-20 14:03:00,
2013-06-20 09:08:00,75.9,21.5,27.19,North,0,0.0,0.0,13,0.00,CLR,OVC,0.00,WeatherDisplay:10.37,2013-06-20 14:08:00,
2013-06-20 09:13:00,76.5,21.9,27.19,North,0,0.0,0.0,13,0.00,CLR,OVC,0.00,WeatherDisplay:10.37,2013-06-20 14:13:00,
2013-06-20 09:18:00,77.0,16.2,27.19,North,0,0.0,0.0,10,0.00,CLR,OVC,0.00,WeatherDisplay:10.37,2013-06-20 14:18:00,
2013-06-20 09:23:00,77.5,16.6,27.19,North,0,0.0,0.0,10,0.00,CLR,OVC,0.00,WeatherDisplay:10.37,2013-06-20 14:23:00,
2013-06-20 09:28:00,78.1,17.0,27.19,North,0,0.0,0.0,10,0.00,CLR,OVC,0.00,WeatherDisplay:10.37,2013-06-20 14:28:00,
2013-06-20 09:33:00,78.4,17.3,27.19,North,0,0.0,0.0,10,0.00,CLR,OVC,0.00,WeatherDisplay:10.37,2013-06-20 14:33:00,
2013-06-20 09:38:00,78.8,17.6,27.19,North,0,0.0,0.0,10,0.00,CLR,OVC,0.00,WeatherDisplay:10.37,2013-06-20 14:38:00,
2013-06-20 09:43:00,79.3,18.0,27.19,North,0,0.0,0.0,10,0.00,CLR,OVC,0.00,WeatherDisplay:10.37,2013-06-20 14:43:00,
2013-06-20 09:48:00,79.7,18.3,27.19,North,0,0.0,0.0,10,0.00,CLR,OVC,0.00,WeatherDisplay:10.37,2013-06-20 14:48:00,
2013-06-20 09:53:00,80.1,18.5,27.19,North,0,0.0,0.0,10,0.00,CLR,OVC,0.00,WeatherDisplay:10.37,2013-06-20 14:53:00,
2013-06-20 09:58:00,80.8,10.9,27.19,North,0,0.0,0.0,7,0.00,CLR,OVC,0.00,WeatherDisplay:10.37,2013-06-20 14:58:00,
2013-06-20 10:03:00,81.3,11.3,27.19,North,0,0.0,0.0,7,0.00,CLR,OVC,0.00,WeatherDisplay:10.37,2013-06-20 15:03:00,
2013-06-20 10:08:00,81.9,11.7,27.19,North,0,0.0,0.0,7,0.00,CLR,OVC,0.00,WeatherDisplay:10.37,2013-06-20 15:08:00,
2013-06-20 10:13:00,82.4,8.6,27.19,North,0,0.0,0.0,6,0.00,CLR,OVC,0.00,WeatherDisplay:10.37,2013-06-20 15:13:00,
2013-06-20 10:18:00,82.9,9.0,27.19,North,0,0.0,0.0,6,0.00,CLR,OVC,0.00,WeatherDisplay:10.37,2013-06-20 15:18:00,
2013-06-20 10:23:00,83.3,9.3,27.19,North,0,0.0,0.0,6,0.00,CLR,OVC,0.00,WeatherDisplay:10.37,2013-06-20 15:23:00,
2013-06-20 10:28:00,83.5,9.4,27.19,North,0,0.0,0.0,6,0.00,CLR,OVC,0.00,WeatherDisplay:10.37,2013-06-20 15:28:00,
2013-06-20 10:33:00,83.8,9.7,27.19,North,0,0.0,0.0,6,0.00,CLR,OVC,0.00,WeatherDisplay:10.37,2013-06-20 15:33:00,
2013-06-20 10:38:00,84.2,9.9,27.19,North,0,0.0,0.0,6,0.00,CLR,OVC,0.00,WeatherDisplay:10.37,2013-06-20 15:38:00,
2013-06-20 10:43:00,84.6,16.7,27.19,North,0,0.0,0.0,8,0.00,CLR,OVC,0.00,WeatherDisplay:10.37,2013-06-20 15:43:00,
2013-06-20 10:48:00,84.2,9.9,27.19,North,0,0.0,0.0,6,0.00,CLR,OVC,0.00,WeatherDisplay:10.37,2013-06-20 15:48:00,
2013-06-20 10:53:00,84.6,10.2,27.19,North,0,0.0,0.0,6,0.00,CLR,OVC,0.00,WeatherDisplay:10.37,2013-06-20 15:53:00,
2013-06-20 10:58:00,84.9,10.5,27.19,North,0,0.0,0.0,6,0.00,CLR,OVC,0.00,WeatherDisplay:10.37,2013-06-20 15:58:00,
2013-06-20 11:03:00,85.6,11.0,27.19,North,0,0.0,0.0,6,0.00,CLR,OVC,0.00,WeatherDisplay:10.37,2013-06-20 16:03:00,
2013-06-20 11:08:00,86.2,11.4,27.19,North,0,0.0,0.0,6,0.00,CLR,OVC,0.00,WeatherDisplay:10.37,2013-06-20 16:08:00,
2013-06-20 11:13:00,86.9,11.9,27.19,North,0,0.0,0.0,6,0.00,CLR,OVC,0.00,WeatherDisplay:10.37,2013-06-20 16:13:00,
2013-06-20 11:18:00,87.6,12.4,27.19,North,0,0.0,0.0,6,0.00,CLR,OVC,0.00,WeatherDisplay:10.37,2013-06-20 16:18:00,
2013-06-20 11:23:00,88.3,8.8,27.19,North,0,0.0,0.0,5,0.00,CLR,OVC,0.00,WeatherDisplay:10.37,2013-06-20 16:23:00,
2013-06-20 11:28:00,88.2,8.7,27.19,North,0,0.0,0.0,5,0.00,CLR,OVC,0.00,WeatherDisplay:10.37,2013-06-20 16:28:00,
2013-06-20 11:33:00,88.5,8.9,27.19,North,0,0.0,0.0,5,0.00,CLR,OVC,0.00,WeatherDisplay:10.37,2013-06-20 16:33:00,
2013-06-20 11:38:00,89.1,9.3,27.19,North,0,0.0,0.0,5,0.00,CLR,OVC,0.00,WeatherDisplay:10.37,2013-06-20 16:38:00,
2013-06-20 11:43:00,89.6,9.7,27.19,North,0,0.0,0.0,5,0.00,CLR,OVC,0.00,WeatherDisplay:10.37,2013-06-20 16:43:00,
2013-06-20 11:48:00,90.0,9.9,27.19,North,0,0.0,0.0,5,0.00,CLR,OVC,0.00,WeatherDisplay:10.37,2013-06-20 16:48:00,
2013-06-20 11:53:00,89.6,9.7,27.19,North,0,0.0,0.0,5,0.00,CLR,OVC,0.00,WeatherDisplay:10.37,2013-06-20 16:53:00,
2013-06-20 11:58:00,90.1,10.1,27.19,North,0,0.0,0.0,5,0.00,CLR,OVC,0.00,WeatherDisplay:10.37,2013-06-20 16:58:00,
2013-06-20 12:03:00,90.1,10.1,27.19,North,0,0.0,0.0,5,0.00,CLR,OVC,0.00,WeatherDisplay:10.37,2013-06-20 17:03:00,
2013-06-20 12:08:00,89.4,9.6,27.19,North,0,0.0,0.0,5,0.00,CLR,OVC,0.00,WeatherDisplay:10.37,2013-06-20 17:08:00,
2013-06-20 12:13:00,89.8,9.8,27.19,North,0,0.0,0.0,5,0.00,CLR,OVC,0.00,WeatherDisplay:10.37,2013-06-20 17:13:00,
2013-06-20 12:18:00,89.8,9.8,27.19,North,0,0.0,0.0,5,0.00,CLR,OVC,0.00,WeatherDisplay:10.37,2013-06-20 17:18:00,
2013-06-20 12:23:00,89.6,9.7,27.19,North,0,0.0,0.0,5,0.00,CLR,OVC,0.00,WeatherDisplay:10.37,2013-06-20 17:23:00,
2013-06-20 12:28:00,90.3,10.2,27.19,North,0,0.0,0.0,5,0.00,CLR,OVC,0.00,WeatherDisplay:10.37,2013-06-20 17:28:00,
2013-06-20 12:33:00,90.9,10.6,27.19,North,0,0.0,0.0,5,0.00,CLR,OVC,0.00,WeatherDisplay:10.37,2013-06-20 17:33:00,
2013-06-20 12:38:00,91.2,10.8,27.19,North,0,0.0,0.0,5,0.00,CLR,OVC,0.00,WeatherDisplay:10.37,2013-06-20 17:38:00,
2013-06-20 12:43:00,91.8,6.2,27.19,North,0,0.0,0.0,4,0.00,CLR,OVC,0.00,WeatherDisplay:10.37,2013-06-20 17:43:00,
2013-06-20 12:48:00,92.3,6.6,27.19,North,0,0.0,0.0,4,0.00,CLR,OVC,0.00,WeatherDisplay:10.37,2013-06-20 17:48:00,
2013-06-20 12:53:00,92.8,7.0,27.19,North,0,0.0,0.0,4,0.00,CLR,OVC,0.00,WeatherDisplay:10.37,2013-06-20 17:53:00,
2013-06-20 12:58:00,93.2,16.4,27.19,North,0,0.0,0.0,6,0.00,CLR,OVC,0.00,WeatherDisplay:10.37,2013-06-20 17:58:00,
2013-06-20 13:03:00,93.4,16.5,27.19,North,0,0.0,0.0,6,0.00,CLR,OVC,0.00,WeatherDisplay:10.37,2013-06-20 18:03:00,
2013-06-20 13:08:00,93.7,16.8,27.19,North,0,0.0,0.0,6,0.00,CLR,OVC,0.00,WeatherDisplay:10.37,2013-06-20 18:08:00,
2013-06-20 13:13:00,94.5,17.3,27.19,North,0,0.0,0.0,6,0.00,CLR,OVC,0.00,WeatherDisplay:10.37,2013-06-20 18:13:00,
2013-06-20 13:18:00,94.8,17.6,27.19,North,0,0.0,0.0,6,0.00,CLR,OVC,0.00,WeatherDisplay:10.37,2013-06-20 18:18:00,
2013-06-20 13:23:00,95.2,17.8,27.19,North,0,0.0,0.0,6,0.00,CLR,OVC,0.00,WeatherDisplay:10.37,2013-06-20 18:23:00,
2013-06-20 13:28:00,95.4,17.9,27.19,North,0,0.0,0.0,6,0.00,CLR,OVC,0.00,WeatherDisplay:10.37,2013-06-20 18:28:00,
2013-06-20 13:33:00,94.3,17.2,27.19,North,0,0.0,0.0,6,0.00,CLR,OVC,0.00,WeatherDisplay:10.37,2013-06-20 18:33:00,
2013-06-20 13:38:00,94.3,17.2,27.19,North,0,0.0,0.0,6,0.00,CLR,OVC,0.00,WeatherDisplay:10.37,2013-06-20 18:38:00,
2013-06-20 13:43:00,94.6,17.4,27.19,North,0,0.0,0.0,6,0.00,CLR,OVC,0.00,WeatherDisplay:10.37,2013-06-20 18:43:00,
2013-06-20 13:48:00,95.2,17.8,27.19,North,0,0.0,0.0,6,0.00,CLR,OVC,0.00,WeatherDisplay:10.37,2013-06-20 18:48:00,
2013-06-20 13:53:00,95.5,18.1,27.19,North,0,0.0,0.0,6,0.00,CLR,OVC,0.00,WeatherDisplay:10.37,2013-06-20 18:53:00,
2013-06-20 13:58:00,95.7,18.2,27.19,North,0,0.0,0.0,6,0.00,CLR,OVC,0.00,WeatherDisplay:10.37,2013-06-20 18:58:00,
2013-06-20 14:03:00,95.4,17.9,27.19,North,0,0.0,0.0,6,0.00,CLR,OVC,0.00,WeatherDisplay:10.37,2013-06-20 19:03:00,
2013-06-20 14:08:00,95.5,18.1,27.19,North,0,0.0,0.0,6,0.00,CLR,OVC,0.00,WeatherDisplay:10.37,2013-06-20 19:08:00,
2013-06-20 14:13:00,95.9,18.3,27.19,North,0,0.0,0.0,6,0.00,CLR,OVC,0.00,WeatherDisplay:10.37,2013-06-20 19:13:00,
2013-06-20 14:18:00,95.7,18.2,27.19,North,0,0.0,0.0,6,0.00,CLR,OVC,0.00,WeatherDisplay:10.37,2013-06-20 19:18:00,
2013-06-20 14:23:00,96.1,18.5,27.19,North,0,0.0,0.0,6,0.00,CLR,OVC,0.00,WeatherDisplay:10.37,2013-06-20 19:23:00,
2013-06-20 14:28:00,96.3,18.6,27.19,North,0,0.0,0.0,6,0.00,CLR,OVC,0.00,WeatherDisplay:10.37,2013-06-20 19:28:00,
2013-06-20 14:33:00,95.9,18.3,27.19,North,0,0.0,0.0,6,0.00,CLR,OVC,0.00,WeatherDisplay:10.37,2013-06-20 19:33:00,
2013-06-20 14:38:00,95.5,18.1,27.19,North,0,0.0,0.0,6,0.00,CLR,OVC,0.00,WeatherDisplay:10.37,2013-06-20 19:38:00,
2013-06-20 14:43:00,95.5,18.1,27.19,North,0,0.0,0.0,6,0.00,CLR,OVC,0.00,WeatherDisplay:10.37,2013-06-20 19:43:00,
2013-06-20 14:48:00,95.4,17.9,27.19,North,0,0.0,0.0,6,0.00,CLR,OVC,0.00,WeatherDisplay:10.37,2013-06-20 19:48:00,
2013-06-20 14:53:00,95.0,17.7,27.19,North,0,0.0,0.0,6,0.00,CLR,OVC,0.00,WeatherDisplay:10.37,2013-06-20 19:53:00,
2013-06-20 14:58:00,94.8,17.6,27.19,North,0,0.0,0.0,6,0.00,CLR,OVC,0.00,WeatherDisplay:10.37,2013-06-20 19:58:00,
2013-06-20 15:03:00,93.9,16.9,27.19,North,0,0.0,0.0,6,0.00,CLR,OVC,0.00,WeatherDisplay:10.37,2013-06-20 20:03:00,
2013-06-20 15:08:00,94.1,17.0,27.19,North,0,0.0,0.0,6,0.00,CLR,OVC,0.00,WeatherDisplay:10.37,2013-06-20 20:08:00,
2013-06-20 15:13:00,95.0,17.7,27.19,North,0,0.0,0.0,6,0.00,CLR,OVC,0.00,WeatherDisplay:10.37,2013-06-20 20:13:00,
2013-06-20 15:18:00,95.4,17.9,27.19,North,0,0.0,0.0,6,0.00,CLR,OVC,0.00,WeatherDisplay:10.37,2013-06-20 20:18:00,
2013-06-20 15:23:00,95.5,18.1,27.19,North,0,0.0,0.0,6,0.00,CLR,OVC,0.00,WeatherDisplay:10.37,2013-06-20 20:23:00,
2013-06-20 15:28:00,95.2,17.8,27.19,North,0,0.0,0.0,6,0.00,CLR,OVC,0.00,WeatherDisplay:10.37,2013-06-20 20:28:00,
2013-06-20 15:33:00,95.7,18.2,27.19,North,0,0.0,0.0,6,0.00,CLR,OVC,0.00,WeatherDisplay:10.37,2013-06-20 20:33:00,
2013-06-20 15:38:00,96.4,18.7,27.19,North,0,0.0,0.0,6,0.00,CLR,OVC,0.00,WeatherDisplay:10.37,2013-06-20 20:38:00,
2013-06-20 15:43:00,96.4,18.7,27.19,North,0,0.0,0.0,6,0.00,CLR,OVC,0.00,WeatherDisplay:10.37,2013-06-20 20:43:00,
2013-06-20 15:48:00,96.1,18.5,27.19,North,0,0.0,0.0,6,0.00,CLR,OVC,0.00,WeatherDisplay:10.37,2013-06-20 20:48:00,
2013-06-20 15:53:00,95.9,18.3,27.19,North,0,0.0,0.0,6,0.00,CLR,OVC,0.00,WeatherDisplay:10.37,2013-06-20 20:53:00,
2013-06-20 15:58:00,96.1,18.5,27.19,North,0,0.0,0.0,6,0.00,CLR,OVC,0.00,WeatherDisplay:10.37,2013-06-20 20:58:00,
2013-06-20 16:03:00,95.7,18.2,27.19,North,0,0.0,0.0,6,0.00,CLR,OVC,0.00,WeatherDisplay:10.37,2013-06-20 21:03:00,
2013-06-20 16:08:00,95.2,17.8,27.19,North,0,0.0,0.0,6,0.00,CLR,OVC,0.00,WeatherDisplay:10.37,2013-06-20 21:08:00,
2013-06-20 16:13:00,95.5,18.1,27.19,North,0,0.0,0.0,6,0.00,CLR,OVC,0.00,WeatherDisplay:10.37,2013-06-20 21:13:00,
2013-06-20 16:18:00,95.4,17.9,27.19,North,0,0.0,0.0,6,0.00,CLR,OVC,0.00,WeatherDisplay:10.37,2013-06-20 21:18:00,
2013-06-20 16:23:00,95.4,17.9,27.19,North,0,0.0,0.0,6,0.00,CLR,OVC,0.00,WeatherDisplay:10.37,2013-06-20 21:23:00,
2013-06-20 16:28:00,95.4,17.9,27.19,North,0,0.0,0.0,6,0.00,CLR,OVC,0.00,WeatherDisplay:10.37,2013-06-20 21:28:00,
2013-06-20 16:33:00,95.5,18.1,27.19,North,0,0.0,0.0,6,0.00,CLR,OVC,0.00,WeatherDisplay:10.37,2013-06-20 21:33:00,
2013-06-20 16:38:00,95.5,18.1,27.19,North,0,0.0,0.0,6,0.00,CLR,OVC,0.00,WeatherDisplay:10.37,2013-06-20 21:38:00,
2013-06-20 16:43:00,95.4,17.9,27.19,North,0,0.0,0.0,6,0.00,CLR,OVC,0.00,WeatherDisplay:10.37,2013-06-20 21:43:00,
2013-06-20 16:48:00,95.5,18.1,27.19,North,0,0.0,0.0,6,0.00,CLR,OVC,0.00,WeatherDisplay:10.37,2013-06-20 21:48:00,
2013-06-20 16:53:00,95.4,17.9,27.19,North,0,0.0,0.0,6,0.00,CLR,OVC,0.00,WeatherDisplay:10.37,2013-06-20 21:53:00,
2013-06-20 16:58:00,95.0,17.7,27.19,North,0,0.0,0.0,6,0.00,CLR,OVC,0.00,WeatherDisplay:10.37,2013-06-20 21:58:00,
2013-06-20 17:03:00,94.8,17.6,27.19,North,0,0.0,0.0,6,0.00,CLR,OVC,0.00,WeatherDisplay:10.37,2013-06-20 22:03:00,
2013-06-20 17:08:00,94.8,17.6,27.19,North,0,0.0,0.0,6,0.00,CLR,OVC,0.00,WeatherDisplay:10.37,2013-06-20 22:08:00,
2013-06-20 17:13:00,94.3,17.2,27.19,North,0,0.0,0.0,6,0.00,CLR,OVC,0.00,WeatherDisplay:10.37,2013-06-20 22:13:00,
2013-06-20 17:18:00,93.6,7.5,27.19,North,0,0.0,0.0,4,0.00,CLR,OVC,0.00,WeatherDisplay:10.37,2013-06-20 22:18:00,
2013-06-20 17:23:00,93.2,7.2,27.19,North,0,0.0,0.0,4,0.00,CLR,OVC,0.00,WeatherDisplay:10.37,2013-06-20 22:23:00,
2013-06-20 17:28:00,92.7,6.9,27.19,North,0,0.0,0.0,4,0.00,CLR,OVC,0.00,WeatherDisplay:10.37,2013-06-20 22:28:00,
2013-06-20 17:33:00,92.1,6.5,27.19,North,0,0.0,0.0,4,0.00,CLR,OVC,0.00,WeatherDisplay:10.37,2013-06-20 22:33:00,
2013-06-20 17:38:00,91.8,6.2,27.19,North,0,0.0,0.0,4,0.00,CLR,OVC,0.00,WeatherDisplay:10.37,2013-06-20 22:38:00,
2013-06-20 17:43:00,91.6,6.1,27.19,North,0,0.0,0.0,4,0.00,CLR,OVC,0.00,WeatherDisplay:10.37,2013-06-20 22:43:00,
2013-06-20 17:48:00,91.2,10.8,27.19,North,0,0.0,0.0,5,0.00,CLR,OVC,0.00,WeatherDisplay:10.37,2013-06-20 22:48:00,
2013-06-20 17:53:00,90.7,10.5,27.19,North,0,0.0,0.0,5,0.00,CLR,OVC,0.00,WeatherDisplay:10.37,2013-06-20 22:53:00,
2013-06-20 17:58:00,90.3,10.2,27.19,North,0,0.0,0.0,5,0.00,CLR,OVC,0.00,WeatherDisplay:10.37,2013-06-20 22:58:00,
2013-06-20 18:03:00,89.6,9.7,27.19,North,0,0.0,0.0,5,0.00,CLR,OVC,0.00,WeatherDisplay:10.37,2013-06-20 23:03:00,
2013-06-20 18:08:00,89.2,9.4,27.19,North,0,0.0,0.0,5,0.00,CLR,OVC,0.00,WeatherDisplay:10.37,2013-06-20 23:08:00,
2013-06-20 18:13:00,88.9,9.2,27.19,North,0,0.0,0.0,5,0.00,CLR,OVC,0.00,WeatherDisplay:10.37,2013-06-20 23:13:00,
2013-06-20 18:18:00,88.5,8.9,27.19,North,0,0.0,0.0,5,0.00,CLR,OVC,0.00,WeatherDisplay:10.37,2013-06-20 23:18:00,
2013-06-20 18:23:00,88.2,8.7,27.19,North,0,0.0,0.0,5,0.00,CLR,OVC,0.00,WeatherDisplay:10.37,2013-06-20 23:23:00,
2013-06-20 18:28:00,88.0,8.6,27.19,North,0,0.0,0.0,5,0.00,CLR,OVC,0.00,WeatherDisplay:10.37,2013-06-20 23:28:00,
2013-06-20 18:33:00,88.0,8.6,27.19,North,0,0.0,0.0,5,0.00,CLR,OVC,0.00,WeatherDisplay:10.37,2013-06-20 23:33:00,
2013-06-20 18:38:00,87.8,8.4,27.19,North,0,0.0,0.0,5,0.00,CLR,OVC,0.00,WeatherDisplay:10.37,2013-06-20 23:38:00,
2013-06-20 18:43:00,87.6,12.4,27.19,North,0,0.0,0.0,6,0.00,CLR,OVC,0.00,WeatherDisplay:10.37,2013-06-20 23:43:00,
2013-06-20 18:48:00,87.4,12.3,27.19,North,0,0.0,0.0,6,0.00,CLR,OVC,0.00,WeatherDisplay:10.37,2013-06-20 23:48:00,
2013-06-20 18:53:00,87.3,12.1,27.19,North,0,0.0,0.0,6,0.00,CLR,OVC,0.00,WeatherDisplay:10.37,2013-06-20 23:53:00,
2013-06-20 18:58:00,87.1,12.0,27.19,North,0,0.0,0.0,6,0.00,CLR,OVC,0.00,WeatherDisplay:10.37,2013-06-20 23:58:00,
2013-06-20 19:03:00,86.9,11.9,27.19,North,0,0.0,0.0,6,0.00,CLR,OVC,0.00,WeatherDisplay:10.37,2013-06-21 00:03:00,
2013-06-20 19:08:00,86.7,11.7,27.19,North,0,0.0,0.0,6,0.00,CLR,OVC,0.00,WeatherDisplay:10.37,2013-06-21 00:08:00,
2013-06-20 19:13:00,86.5,11.6,27.19,North,0,0.0,0.0,6,0.00,CLR,OVC,0.00,WeatherDisplay:10.37,2013-06-21 00:13:00,
2013-06-20 19:18:00,86.4,11.5,27.19,North,0,0.0,0.0,6,0.00,CLR,OVC,0.00,WeatherDisplay:10.37,2013-06-21 00:18:00,
2013-06-20 19:23:00,86.4,11.5,27.19,North,0,0.0,0.0,6,0.00,CLR,OVC,0.00,WeatherDisplay:10.37,2013-06-21 00:23:00,
2013-06-20 19:28:00,86.0,11.2,27.19,North,0,0.0,0.0,6,0.00,CLR,OVC,0.00,WeatherDisplay:10.37,2013-06-21 00:28:00,
2013-06-20 19:33:00,85.8,11.1,27.19,North,0,0.0,0.0,6,0.00,CLR,OVC,0.00,WeatherDisplay:10.37,2013-06-21 00:33:00,
2013-06-20 19:38:00,85.6,11.0,27.19,North,0,0.0,0.0,6,0.00,CLR,OVC,0.00,WeatherDisplay:10.37,2013-06-21 00:38:00,
2013-06-20 19:43:00,85.5,10.8,27.19,North,0,0.0,0.0,6,0.00,CLR,OVC,0.00,WeatherDisplay:10.37,2013-06-21 00:43:00,
2013-06-20 19:48:00,85.3,10.7,27.19,North,0,0.0,0.0,6,0.00,CLR,OVC,0.00,WeatherDisplay:10.37,2013-06-21 00:48:00,
2013-06-20 19:53:00,84.9,10.5,27.19,North,0,0.0,0.0,6,0.00,CLR,OVC,0.00,WeatherDisplay:10.37,2013-06-21 00:53:00,
2013-06-20 19:58:00,84.6,10.2,27.19,North,0,0.0,0.0,6,0.00,CLR,OVC,0.00,WeatherDisplay:10.37,2013-06-21 00:58:00,
2013-06-20 20:03:00,84.2,9.9,27.19,North,0,0.0,0.0,6,0.00,CLR,OVC,0.00,WeatherDisplay:10.37,2013-06-21 01:03:00,
2013-06-20 20:08:00,84.0,9.8,27.19,North,0,0.0,0.0,6,0.00,CLR,OVC,0.00,WeatherDisplay:10.37,2013-06-21 01:08:00,
2013-06-20 20:13:00,83.8,9.7,27.19,North,0,0.0,0.0,6,0.00,CLR,OVC,0.00,WeatherDisplay:10.37,2013-06-21 01:13:00,
2013-06-20 20:18:00,83.5,9.4,27.19,North,0,0.0,0.0,6,0.00,CLR,OVC,0.00,WeatherDisplay:10.37,2013-06-21 01:18:00,
2013-06-20 20:23:00,83.3,9.3,27.19,North,0,0.0,0.0,6,0.00,CLR,OVC,0.00,WeatherDisplay:10.37,2013-06-21 01:23:00,
2013-06-20 20:28:00,83.1,9.2,27.19,North,0,0.0,0.0,6,0.00,CLR,OVC,0.00,WeatherDisplay:10.37,2013-06-21 01:28:00,
2013-06-20 20:33:00,82.8,8.9,27.19,North,0,0.0,0.0,6,0.00,CLR,OVC,0.00,WeatherDisplay:10.37,2013-06-21 01:33:00,
2013-06-20 20:38:00,82.6,8.8,27.19,North,0,0.0,0.0,6,0.00,CLR,OVC,0.00,WeatherDisplay:10.37,2013-06-21 01:38:00,
2013-06-20 20:43:00,82.4,8.6,27.19,North,0,0.0,0.0,6,0.00,CLR,OVC,0.00,WeatherDisplay:10.37,2013-06-21 01:43:00,
2013-06-20 20:48:00,82.2,12.0,27.19,North,0,0.0,0.0,7,0.00,CLR,OVC,0.00,WeatherDisplay:10.37,2013-06-21 01:48:00,
2013-06-20 20:53:00,82.0,11.8,27.19,North,0,0.0,0.0,7,0.00,CLR,OVC,0.00,WeatherDisplay:10.37,2013-06-21 01:53:00,
2013-06-20 20:58:00,81.9,11.7,27.19,North,0,0.0,0.0,7,0.00,CLR,OVC,0.00,WeatherDisplay:10.37,2013-06-21 01:58:00,
2013-06-20 21:03:00,81.7,11.6,27.19,North,0,0.0,0.0,7,0.00,CLR,OVC,0.00,WeatherDisplay:10.37,2013-06-21 02:03:00,
2013-06-20 21:08:00,81.3,11.3,27.19,North,0,0.0,0.0,7,0.00,CLR,OVC,0.00,WeatherDisplay:10.37,2013-06-21 02:08:00,
2013-06-20 21:13:00,81.0,11.0,27.19,North,0,0.0,0.0,7,0.00,CLR,OVC,0.00,WeatherDisplay:10.37,2013-06-21 02:13:00,
2013-06-20 21:18:00,80.6,10.8,27.19,North,0,0.0,0.0,7,0.00,CLR,OVC,0.00,WeatherDisplay:10.37,2013-06-21 02:18:00,
2013-06-20 21:23:00,80.4,10.6,27.19,North,0,0.0,0.0,7,0.00,CLR,OVC,0.00,WeatherDisplay:10.37,2013-06-21 02:23:00,
2013-06-20 21:28:00,80.1,10.4,27.19,North,0,0.0,0.0,7,0.00,CLR,OVC,0.00,WeatherDisplay:10.37,2013-06-21 02:28:00,
2013-06-20 21:33:00,79.9,10.2,27.19,North,0,0.0,0.0,7,0.00,CLR,OVC,0.00,WeatherDisplay:10.37,2013-06-21 02:33:00,
2013-06-20 21:38:00,79.9,10.2,27.19,North,0,0.0,0.0,7,0.00,CLR,OVC,0.00,WeatherDisplay:10.37,2013-06-21 02:38:00,
2013-06-20 21:43:00,79.9,10.2,27.19,North,0,0.0,0.0,7,0.00,CLR,OVC,0.00,WeatherDisplay:10.37,2013-06-21 02:43:00,
2013-06-20 21:48:00,79.7,18.3,27.19,North,0,0.0,0.0,10,0.00,CLR,OVC,0.00,WeatherDisplay:10.37,2013-06-21 02:48:00,
2013-06-20 21:53:00,79.7,18.3,27.19,North,0,0.0,0.0,10,0.00,CLR,OVC,0.00,WeatherDisplay:10.37,2013-06-21 02:53:00,
2013-06-20 21:58:00,79.5,18.1,27.19,North,0,0.0,0.0,10,0.00,CLR,OVC,0.00,WeatherDisplay:10.37,2013-06-21 02:58:00,
2013-06-20 22:03:00,79.3,18.0,27.19,North,0,0.0,0.0,10,0.00,CLR,OVC,0.00,WeatherDisplay:10.37,2013-06-21 03:03:00,
2013-06-20 22:08:00,79.3,18.0,27.19,North,0,0.0,0.0,10,0.00,CLR,OVC,0.00,WeatherDisplay:10.37,2013-06-21 03:08:00,
2013-06-20 22:13:00,79.3,18.0,27.19,North,0,0.0,0.0,10,0.00,CLR,OVC,0.00,WeatherDisplay:10.37,2013-06-21 03:13:00,
2013-06-20 22:18:00,79.2,17.9,27.19,North,0,0.0,0.0,10,0.00,CLR,OVC,0.00,WeatherDisplay:10.37,2013-06-21 03:18:00,
2013-06-20 22:23:00,79.0,17.7,27.19,North,0,0.0,0.0,10,0.00,CLR,OVC,0.00,WeatherDisplay:10.37,2013-06-21 03:23:00,
2013-06-20 22:28:00,79.0,17.7,27.19,North,0,0.0,0.0,10,0.00,CLR,OVC,0.00,WeatherDisplay:10.37,2013-06-21 03:28:00,
2013-06-20 22:33:00,78.8,17.6,27.19,North,0,0.0,0.0,10,0.00,CLR,OVC,0.00,WeatherDisplay:10.37,2013-06-21 03:33:00,
2013-06-20 22:38:00,78.8,17.6,27.19,North,0,0.0,0.0,10,0.00,CLR,OVC,0.00,WeatherDisplay:10.37,2013-06-21 03:38:00,
2013-06-20 22:43:00,78.6,17.4,27.19,North,0,0.0,0.0,10,0.00,CLR,OVC,0.00,WeatherDisplay:10.37,2013-06-21 03:43:00,
2013-06-20 22:48:00,78.4,17.3,27.19,North,0,0.0,0.0,10,0.00,CLR,OVC,0.00,WeatherDisplay:10.37,2013-06-21 03:48:00,
2013-06-20 22:53:00,78.4,17.3,27.19,North,0,0.0,0.0,10,0.00,CLR,OVC,0.00,WeatherDisplay:10.37,2013-06-21 03:53:00,
2013-06-20 22:58:00,78.3,17.2,27.19,North,0,0.0,0.0,10,0.00,CLR,OVC,0.00,WeatherDisplay:10.37,2013-06-21 03:58:00,
2013-06-20 23:01:00,78.3,17.2,27.19,North,0,0.0,0.0,10,0.00,CLR,OVC,0.00,WeatherDisplay:10.37,2013-06-21 04:01:00,
2013-06-20 23:02:00,78.3,17.2,27.19,North,0,0.0,0.0,10,0.00,CLR,OVC,0.00,WeatherDisplay:10.37,2013-06-21 04:02:00,
2013-06-20 23:03:00,78.3,17.2,27.19,North,0,0.0,0.0,10,0.00,CLR,OVC,0.00,WeatherDisplay:10.37,2013-06-21 04:03:00,
2013-06-20 23:08:00,78.1,17.0,27.19,North,0,0.0,0.0,10,0.00,CLR,OVC,0.00,WeatherDisplay:10.37,2013-06-21 04:08:00,
2013-06-20 23:13:00,78.1,17.0,27.19,North,0,0.0,0.0,10,0.00,CLR,OVC,0.00,WeatherDisplay:10.37,2013-06-21 04:13:00,
2013-06-20 23:18:00,78.1,17.0,27.19,North,0,0.0,0.0,10,0.00,CLR,OVC,0.00,WeatherDisplay:10.37,2013-06-21 04:18:00,
2013-06-20 23:23:00,78.1,17.0,27.19,North,0,0.0,0.0,10,0.00,CLR,OVC,0.00,WeatherDisplay:10.37,2013-06-21 04:23:00,
2013-06-20 23:28:00,78.1,17.0,27.19,North,0,0.0,0.0,10,0.00,CLR,OVC,0.00,WeatherDisplay:10.37,2013-06-21 04:28:00,
2013-06-20 23:33:00,78.1,17.0,27.19,North,0,0.0,0.0,10,0.00,CLR,OVC,0.00,WeatherDisplay:10.37,2013-06-21 04:33:00,
2013-06-20 23:38:00,78.1,17.0,27.19,North,0,0.0,0.0,10,0.00,CLR,OVC,0.00,WeatherDisplay:10.37,2013-06-21 04:38:00,
2013-06-20 23:43:00,77.9,16.9,27.19,North,0,0.0,0.0,10,0.00,CLR,OVC,0.00,WeatherDisplay:10.37,2013-06-21 04:43:00,
2013-06-20 23:48:00,77.9,16.9,27.19,North,0,0.0,0.0,10,0.00,CLR,OVC,0.00,WeatherDisplay:10.37,2013-06-21 04:48:00,
2013-06-20 23:53:00,77.7,16.8,27.19,North,0,0.0,0.0,10,0.00,CLR,OVC,0.00,WeatherDisplay:10.37,2013-06-21 04:53:00,
2013-06-20 23:58:00,77.7,16.8,27.19,North,0,0.0,0.0,10,0.00,CLR,OVC,0.00,WeatherDisplay:10.37,2013-06-21 04:58:00,